AMOS-4

Last updated on Mon Nov 03 2025 00:02:57 GMT+0000 (Coordinated Universal Time)

1 39237U 13045A 25306.50716891 .00000019 00000+0 00000+0 0 9998 2 39237 0.0234 249.0713 0002512 16.6041 23.9486 1.00271719 44681
UTC large
Height (km)
Speed (km/s)
/
Latitude / Longitude
Inclination (degrees)
Orbital Period (minutes)
Azimuth
Elevation
Range (km)
Doppler Factor

Next 0 passes for location: London (51.5072 / 0.1276)

Sorry there are no passes over London.